This is the latest recevied weather packets stored in our database for station/object IK1AMC-3. If no packets are shown the sender has not sent any weather packets the latest 10 day(s).
| Time | Temp. | Humidity | Pressure | Rain* | Wind** | Luminosity | Snow |
|---|---|---|---|---|---|---|---|
| 1777864713 | 15.56° C | 74% | 1017.1 hPa | - | - | - | - |
| 1777863512 | 15.56° C | 73% | 1017.2 hPa | - | - | - | - |
| 1777862310 | 15.56° C | 71% | 1017.1 hPa | - | - | - | - |
| 1777861109 | 15.56° C | 73% | 1017.4 hPa | - | - | - | - |
| 1777859908 | 15.56° C | 72% | 1017.5 hPa | - | - | - | - |
| 1777858706 | 15.56° C | 71% | 1017.3 hPa | - | - | - | - |
| 1777857505 | 15.56° C | 70% | 1017.3 hPa | - | - | - | - |
| 1777856304 | 16.11° C | 68% | 1017.5 hPa | - | - | - | - |
| 1777855102 | 15.56° C | 69% | 1017.7 hPa | - | - | - | - |
| 1777853901 | 15.56° C | 68% | 1017.7 hPa | - | - | - | - |
| 1777852700 | 16.11° C | 68% | 1018 hPa | - | - | - | - |
| 1777851499 | 15.56° C | 69% | 1018 hPa | - | - | - | - |
| 1777850297 | 15.56° C | 67% | 1018 hPa | - | - | - | - |
| 1777849096 | 15.56° C | 67% | 1018.1 hPa | - | - | - | - |
| 1777847895 | 16.11° C | 65% | 1018.2 hPa | - | - | - | - |
| 1777846694 | 16.11° C | 63% | 1018.2 hPa | - | - | - | - |
| 1777845492 | 15.56° C | 64% | 1018.3 hPa | - | - | - | - |
| 1777844291 | 16.11° C | 62% | 1018.3 hPa | - | - | - | - |
| 1777843090 | 16.11° C | 60% | 1018.3 hPa | - | - | - | - |
| 1777841888 | 16.11° C | 58% | 1018.2 hPa | - | - | - | - |
| 1777840687 | 16.11° C | 58% | 1018.1 hPa | - | - | - | - |
| 1777839486 | 16.67° C | 58% | 1018 hPa | - | - | - | - |
| 1777838285 | 16.67° C | 61% | 1017.9 hPa | - | - | - | - |
| 1777837083 | 17.22° C | 63% | 1017.8 hPa | - | - | - | - |
| 1777835882 | 17.22° C | 63% | 1017.7 hPa | - | - | - | - |
* Rain since midnight (hover to see other rain measurements)
** Current wind speed in m/s (hover to see current wind gust speed)